#timestamp,LO_Frequency,Hit,StdDev 
1570388415.1,286046998.2,Y
1570388416.0,286046998.2,P
1570388435.8,286047000.6,N
1570388455.7,286047000.9,N
1570388475.5,286047000.2,N
1570388495.3,286047000.1,N
1570388515.2,286047002.8,N
1570388535.0,286047001.6,N
1570388535.9,286047001.6,N
1570388555.7,286047001.5,N
1570388575.6,286047002.0,N
1570388595.4,286047000.8,N
1570388615.3,286047000.3,N
1570388635.1,286046999.7,N
1570388655.8,286047000.5,N
1570388675.7,286047000.5,N
1570388695.5,286046998.9,N
1570388715.4,286046998.8,N
1570388735.2,286047001.2,N
1570388755.0,286046998.1,N
1570388755.9,286046998.1,N
1570388775.8,286046999.9,N
1570388795.6,286046998.3,N
1570388815.5,286046996.6,N
1570388835.4,286047001.1,N
1570388855.2,286046998.1,N
1570388875.0,286046998.5,N
1570388875.9,286046998.5,N
1570388895.8,286047000.9,N
1570388915.6,286047000.6,N
1570388935.5,286046998.9,N
1570388955.3,286046998.3,N
1570388975.1,286047000.6,N
1570388995.9,286046999.7,N
1570389015.7,286047001.4,N
1570389035.5,286047004.2,N
1570389055.4,286047004.1,N
1570389075.2,286047003.3,N
1570389095.1,286047005.8,Y
1570389096.0,286047005.8,P
1570389115.8,286047004.0,N
1570389135.6,286047001.5,N
1570389155.5,286047002.3,N
1570389175.3,286047000.5,N
1570389195.2,286047000.4,N
1570389215.9,286047002.3,N
1570389265.8,286047001.3,E
1570389275.7,286047003.9,N
1570389295.5,286047003.9,P
1570389315.4,286047002.2,P
1570389335.2,286047000.0,N
1570389355.0,286047000.0,N
1570389355.9,286047000.0,N
1570389375.8,286047002.3,N
1570389395.6,286047000.1,N
1570389415.5,286047002.3,N
1570389435.3,286047000.0,N
1570389455.1,286046998.1,N
1570389475.9,286046998.3,N
1570389495.7,286046996.7,N
1570389515.5,286046996.7,N
1570389535.4,286047001.1,N
1570389555.2,286046998.1,N
1570389575.1,286047000.7,N
1570389576.0,286047000.7,N
1570389595.8,286046999.8,N
1570389615.6,286047001.8,N
1570389635.5,286047003.5,N
1570389655.3,286047003.1,N
1570389675.2,286047003.6,N
1570389695.9,286047001.7,N
1570389715.7,286046998.7,N
1570389735.6,286046998.6,N
1570389755.4,286047000.7,N
1570389775.2,286047000.4,N
1570389795.1,286046998.6,N
1570389796.0,286046998.6,N
1570389815.8,286047001.1,N
1570389835.7,286046999.3,N
1570389855.5,286047007.2,Y
1570389875.4,286047003.3,P
1570389895.2,286047002.6,N
1570389915.0,286046999.0,N
1570389915.9,286046999.0,N
1570389935.8,286046999.9,N
1570389955.6,286047001.6,N
1570389975.4,286047001.4,N
1570389995.3,286047003.7,N
1570390015.1,286047005.2,Y
1570390035.9,286047003.7,P
1570390055.7,286047009.1,P
1570390075.5,286047010.6,P
1570390095.4,286047008.2,N
1570390145.2,286047005.5,E
1570390155.2,286047003.2,N
1570390175.9,286047000.3,P
1570390195.2,286046998.5,N
1570390215.1,286047001.2,N
1570390216.0,286047001.2,N
1570390235.8,286047000.7,N
1570390255.6,286046999.1,N
1570390275.5,286046999.6,N
1570390295.3,286046997.0,N
1570390315.2,286046997.4,N
1570390335.9,286046997.3,N
1570390355.7,286046998.0,N
1570390375.6,286046995.0,N
1570390395.4,286046995.1,N
1570390415.2,286046995.5,N
1570390435.1,286046994.1,N
1570390436.0,286046994.1,N
1570390455.8,286046993.4,N
1570390475.7,286046996.0,N
1570390495.5,286046991.9,N
1570390515.3,286046994.0,N
1570390535.2,286046993.5,N
1570390555.0,286046994.1,N
1570390555.9,286046994.1,N
1570390575.8,286046993.8,N
1570390595.6,286046993.5,N
1570390615.4,286046996.0,N
1570390635.3,286046996.3,N
1570390655.1,286046993.8,N
1570390675.9,286046995.6,N
1570390695.7,286046995.9,N
1570390715.5,286046996.0,N
1570390735.4,286046995.8,N
1570390755.2,286046996.0,N
1570390775.0,286046994.0,N
1570390776.0,286046994.0,Y
1570390795.8,286046996.6,P
1570390815.1,286046996.1,P
1570390816.0,286046996.1,P
1570390835.8,286046993.3,Y
1570390855.6,286046998.6,P
1570390875.5,286047000.1,N
1570390895.3,286047001.7,N
1570390915.2,286047000.1,N
1570390935.9,286047001.0,N
1570390955.7,286047000.6,N
1570390975.6,286047002.4,N
1570390995.4,286047001.5,N
1570391015.2,286047003.8,N
1570391035.1,286047003.7,N
1570391036.0,286047003.7,N
1570391055.8,286047003.7,N
1570391075.7,286047003.1,N
1570391095.5,286047004.1,N
1570391115.3,286047003.7,N
1570391135.2,286047005.7,N
1570391155.0,286047005.9,N
1570391155.9,286047005.9,N
1570391175.8,286047004.6,N
1570391195.6,286047003.3,N
1570391215.4,286047001.6,N
1570391235.3,286047001.9,N
1570391255.1,286047001.9,N
1570391275.9,286047004.0,N
1570391295.7,286047002.4,N
1570391315.5,286047000.2,N
1570391335.4,286046999.8,N
1570391355.2,286047001.9,N
1570391375.0,286047004.3,N
1570391375.9,286047004.3,N
1570391395.8,286047003.6,N
1570391415.6,286047005.6,Y
1570391435.5,286047002.3,P
1570391455.3,286047002.5,P
1570391475.1,286047004.3,P
1570391495.9,286047003.9,Y
1570391515.7,286046998.1,P
1570391535.6,286046996.9,N
1570391555.4,286046997.1,N
1570391575.2,286046999.0,N
1570391595.1,286046998.5,N
1570391596.0,286046998.5,N
1570391615.8,286047000.0,N
1570391635.1,286047000.1,N
1570391636.0,286047000.1,N
1570391655.8,286046999.9,N
1570391675.6,286047000.9,N
1570391695.5,286047000.7,N
1570391715.3,286047000.5,N
1570391735.2,286046999.9,N
1570391755.9,286046999.8,N
1570391775.7,286047000.4,N
1570391795.6,286047000.1,N
1570391815.8,286046998.1,N
1570391835.6,286047000.6,N
1570391855.4,286047000.4,N
1570391875.3,286047000.4,N
1570391895.1,286047001.1,N
1570391915.8,286047000.6,N
1570391935.7,286047000.9,N
1570391955.5,286046999.4,N
1570391975.4,286046998.3,N
1570391995.1,286047001.2,N
1570391996.0,286047001.2,N
